#timestamp,LO_Frequency,Hit,StdDev 
1554354015.1,286046999.7,N
1554354035.9,286047000.4,N
1554354055.7,286047001.0,N
1554354075.5,286046998.1,N
1554354095.4,286047000.7,N
1554354115.2,286047000.4,N
1554354135.1,286047004.3,N
1554354136.0,286047004.3,N
1554354155.8,286047002.6,N
1554354175.6,286047000.7,N
1554354195.5,286047001.0,N
1554354215.3,286046996.6,N
1554354235.1,286046997.7,N
1554354255.9,286046995.1,N
1554354275.7,286046997.2,N
1554354295.6,286046996.2,N
1554354315.4,286046997.6,N
1554354335.2,286046996.1,N
1554354355.1,286046997.5,N
1554354356.0,286046997.5,N
1554354375.8,286046997.5,N
1554354395.6,286046999.2,N
1554354415.5,286046998.8,N
1554354435.3,286047002.7,N
1554354455.5,286047002.7,N
1554354475.3,286047000.6,N
1554354495.1,286047001.1,N
1554354515.9,286047000.3,N
1554354535.7,286047002.1,N
1554354555.6,286047001.2,N
1554354575.4,286046999.6,N
1554354595.2,286046997.7,N
1554354615.1,286046997.3,N
1554354616.0,286046997.3,N
1554354635.8,286046997.1,N
1554354655.6,286046999.2,N
1554354675.5,286047001.2,N
1554354695.3,286046998.3,N
1554354715.2,286046998.6,N
1554354735.9,286046999.6,N
1554354755.7,286046999.3,N
1554354775.6,286046998.1,N
1554354795.4,286047001.2,N
1554354815.3,286046999.8,N
1554354835.1,286046999.8,N
1554354836.0,286046999.8,N
1554354855.8,286047002.4,N
1554354875.7,286046999.9,N
1554354895.5,286047002.5,N
1554354915.3,286047001.3,N
1554354935.2,286047002.7,N
1554354955.0,286047001.2,N
1554354955.9,286047001.2,N
1554354975.8,286046998.6,N
1554354995.6,286046998.6,N
1554355015.4,286046998.4,N
1554355035.3,286046998.6,N
1554355055.1,286046999.9,N
1554355075.9,286047000.2,N
1554355095.7,286047002.0,N
1554355115.5,286047000.1,N
1554355135.4,286047004.3,N
1554355155.2,286047003.8,N
1554355175.0,286047000.4,N
1554355175.9,286047000.4,N
1554355195.8,286047000.9,N
1554355215.6,286047001.2,N
1554355235.5,286047000.4,N
1554355255.3,286047000.4,N
1554355275.1,286047000.3,N
1554355295.9,286047002.7,N
1554355315.7,286046999.7,N
1554355335.5,286047001.6,N
1554355355.4,286047002.0,N
1554355375.2,286046999.7,N
1554355395.1,286047000.6,N
1554355396.0,286047000.6,N
1554355415.8,286046998.9,N
1554355435.6,286046997.4,N
1554355455.5,286046997.0,N
1554355475.3,286046995.0,Y
1554355495.1,286046997.0,P
1554355515.9,286046999.3,N
1554355535.7,286046997.0,N
1554355555.6,286046997.6,N
1554355575.4,286046998.9,N
1554355595.2,286046996.5,N
1554355615.1,286046996.5,N
1554355616.0,286046996.5,N
1554355635.8,286046998.3,N
1554355655.6,286046998.4,N
1554355675.5,286047000.6,N
1554355695.3,286047001.1,N
1554355715.2,286047001.0,N
1554355735.9,286047001.0,N
1554355755.7,286047000.6,N
1554355775.6,286047000.5,N
1554355795.4,286047001.2,N
1554355815.2,286047000.9,N
1554355835.1,286047000.8,N
1554355836.0,286047000.8,N
1554355855.8,286047000.0,N
1554355875.7,286046998.3,N
1554355895.5,286046999.5,N
1554355915.3,286046999.4,N
1554355935.2,286046999.4,N
1554355955.0,286047000.0,N
1554355955.9,286047000.0,N
1554355975.8,286046998.2,N
1554355995.6,286047001.0,N
1554356015.4,286046999.7,N
1554356035.3,286047002.5,N
1554356055.1,286047000.2,N
1554356075.8,286047000.5,N
1554356095.7,286047000.4,N
1554356115.5,286046999.0,N
1554356135.4,286046998.3,N
1554356155.2,286046999.9,N
1554356175.0,286047001.1,N
1554356175.9,286047001.1,N
1554356195.8,286046998.9,N
1554356215.6,286047000.7,N
1554356235.4,286046999.8,N
1554356255.3,286047000.5,N
1554356275.1,286046998.9,N
1554356295.9,286046999.5,N
1554356315.7,286046999.1,N
1554356335.5,286046998.9,N
1554356355.4,286047002.4,N
1554356375.2,286047002.8,N
1554356395.0,286047002.1,N
1554356395.9,286047002.1,N
1554356415.8,286047002.1,N
1554356435.6,286047002.1,N
1554356455.5,286046999.7,N
1554356475.3,286047002.7,N
1554356495.1,286046999.8,N
1554356515.9,286046999.7,N
1554356535.7,286046999.8,N
1554356555.5,286047000.3,N
1554356575.4,286046998.3,N
1554356595.2,286046998.2,N
1554356615.1,286046996.9,N
1554356616.0,286046996.9,N
1554356635.8,286046997.6,N
1554356655.6,286046997.5,N
1554356675.5,286046995.3,N
1554356695.3,286046995.6,N
1554356715.2,286046995.5,N
1554356735.9,286046996.2,N
1554356755.7,286046995.0,N
1554356775.6,286046997.3,N
1554356795.4,286046997.9,N
1554356815.2,286046999.2,N
1554356835.1,286046998.9,N
1554356836.0,286046998.9,N
1554356855.8,286046998.3,N
1554356875.7,286047000.3,N
1554356895.5,286047001.9,N
1554356915.3,286047002.8,N
1554356935.2,286046998.3,N
1554356955.0,286046999.4,N
1554356955.9,286046999.4,N
1554356975.8,286046998.1,N
1554356995.6,286046998.9,N
1554357015.4,286046998.9,N
1554357035.3,286046998.2,N
1554357055.1,286047000.0,N
1554357075.8,286047002.7,N
1554357095.7,286047003.5,N
1554357115.1,286047003.8,N
1554357116.0,286047003.8,N
1554357135.8,286047002.1,N
1554357155.7,286047002.0,N
1554357175.5,286047002.2,N
1554357195.3,286047000.1,N
1554357215.2,286047001.1,N
1554357235.0,286046998.4,N
1554357235.9,286046998.4,N
1554357255.8,286047000.6,N
1554357275.6,286047000.6,N
1554357295.4,286046998.1,N
1554357315.3,286047001.0,N
1554357335.1,286046999.5,N
1554357355.8,286046996.5,N
1554357375.7,286046999.6,N
1554357395.5,286046997.0,N
1554357415.4,286046995.0,N
1554357435.2,286046995.5,N
1554357455.0,286046995.5,N
1554357455.9,286046995.5,N
1554357475.8,286046999.2,N
1554357495.6,286046995.5,N
1554357515.4,286046996.2,N
1554357535.3,286046996.7,N
1554357555.1,286046998.3,N
1554357575.9,286047000.5,N
1554357595.7,286047001.1,N
